#datetime,building,power
2022-11-05T00:00:00,mcc,65.34
2022-11-05T00:01:00,mcc,54.29
2022-11-05T00:02:00,mcc,56.13
2022-11-05T00:03:00,mcc,55.70
2022-11-05T00:04:00,mcc,54.88
2022-11-05T00:05:00,mcc,52.75
2022-11-05T00:06:00,mcc,54.98
2022-11-05T00:07:00,mcc,54.02
2022-11-05T00:08:00,mcc,53.30
2022-11-05T00:09:00,mcc,52.48
2022-11-05T00:10:00,mcc,53.97
2022-11-05T00:11:00,mcc,53.19
2022-11-05T00:12:00,mcc,53.69
2022-11-05T00:13:00,mcc,52.56
2022-11-05T00:14:00,mcc,52.48
2022-11-05T00:15:00,mcc,52.18
2022-11-05T00:16:00,mcc,67.17
2022-11-05T00:17:00,mcc,54.18
2022-11-05T00:18:00,mcc,54.34
2022-11-05T00:19:00,mcc,51.03
2022-11-05T00:20:00,mcc,51.80
2022-11-05T00:21:00,mcc,55.35
2022-11-05T00:22:00,mcc,53.57
2022-11-05T00:23:00,mcc,54.33
2022-11-05T00:24:00,mcc,65.50
2022-11-05T00:25:00,mcc,63.89
2022-11-05T00:26:00,mcc,61.52
2022-11-05T00:27:00,mcc,49.05
2022-11-05T00:28:00,mcc,46.46
2022-11-05T00:29:00,mcc,47.92
2022-11-05T00:30:00,mcc,45.90
2022-11-05T00:31:00,mcc,46.34
2022-11-05T00:32:00,mcc,46.12
2022-11-05T00:33:00,mcc,49.52
2022-11-05T00:34:00,mcc,47.54
2022-11-05T00:35:00,mcc,47.48
2022-11-05T00:36:00,mcc,48.16
2022-11-05T00:37:00,mcc,46.77
2022-11-05T00:38:00,mcc,61.33
2022-11-05T00:39:00,mcc,45.39
2022-11-05T00:40:00,mcc,46.81
2022-11-05T00:41:00,mcc,46.04
2022-11-05T00:42:00,mcc,45.11
2022-11-05T00:43:00,mcc,45.00
2022-11-05T00:44:00,mcc,47.83
2022-11-05T00:45:00,mcc,44.24
2022-11-05T00:46:00,mcc,45.65
2022-11-05T00:47:00,mcc,45.25
2022-11-05T00:48:00,mcc,47.59
2022-11-05T00:49:00,mcc,54.97
2022-11-05T00:50:00,mcc,47.08
2022-11-05T00:51:00,mcc,46.89
2022-11-05T00:52:00,mcc,47.71
2022-11-05T00:53:00,mcc,45.63
2022-11-05T00:54:00,mcc,48.10
2022-11-05T00:55:00,mcc,45.48
2022-11-05T00:56:00,mcc,47.02
2022-11-05T00:57:00,mcc,45.75
2022-11-05T00:58:00,mcc,44.26
2022-11-05T00:59:00,mcc,43.56
2022-11-05T01:00:00,mcc,45.89
2022-11-05T01:01:00,mcc,43.40
2022-11-05T01:02:00,mcc,45.32
2022-11-05T01:03:00,mcc,47.17
2022-11-05T01:04:00,mcc,45.37
2022-11-05T01:05:00,mcc,43.36
2022-11-05T01:06:00,mcc,40.99
2022-11-05T01:07:00,mcc,42.09
2022-11-05T01:08:00,mcc,41.91
2022-11-05T01:09:00,mcc,51.08
2022-11-05T01:10:00,mcc,43.45
2022-11-05T01:11:00,mcc,43.32
2022-11-05T01:12:00,mcc,42.48
2022-11-05T01:13:00,mcc,42.28
2022-11-05T01:14:00,mcc,40.54
2022-11-05T01:15:00,mcc,43.94
2022-11-05T01:16:00,mcc,41.10
2022-11-05T01:17:00,mcc,44.20
2022-11-05T01:18:00,mcc,45.18
2022-11-05T01:19:00,mcc,45.58
2022-11-05T01:20:00,mcc,43.94
2022-11-05T01:21:00,mcc,42.39
2022-11-05T01:22:00,mcc,43.20
2022-11-05T01:23:00,mcc,45.71
2022-11-05T01:24:00,mcc,42.48
2022-11-05T01:25:00,mcc,41.29
2022-11-05T01:26:00,mcc,40.98
2022-11-05T01:27:00,mcc,42.94
2022-11-05T01:28:00,mcc,40.07
2022-11-05T01:29:00,mcc,41.34
2022-11-05T01:30:00,mcc,51.19
2022-11-05T01:31:00,mcc,46.12
2022-11-05T01:32:00,mcc,43.43
2022-11-05T01:33:00,mcc,44.47
2022-11-05T01:34:00,mcc,43.78
2022-11-05T01:35:00,mcc,46.70
2022-11-05T01:36:00,mcc,44.33
2022-11-05T01:37:00,mcc,46.66
2022-11-05T01:38:00,mcc,45.92
2022-11-05T01:39:00,mcc,46.47
2022-11-05T01:40:00,mcc,41.46
2022-11-05T01:41:00,mcc,41.54
2022-11-05T01:42:00,mcc,43.76
2022-11-05T01:43:00,mcc,43.79
2022-11-05T01:44:00,mcc,42.13
2022-11-05T01:45:00,mcc,42.11
2022-11-05T01:46:00,mcc,42.92
2022-11-05T01:47:00,mcc,44.02
2022-11-05T01:48:00,mcc,44.95
2022-11-05T01:49:00,mcc,45.85
2022-11-05T01:50:00,mcc,55.19
2022-11-05T01:51:00,mcc,45.99
2022-11-05T01:52:00,mcc,44.74
2022-11-05T01:53:00,mcc,43.13
2022-11-05T01:54:00,mcc,59.80
2022-11-05T01:55:00,mcc,43.94
2022-11-05T01:56:00,mcc,43.82
2022-11-05T01:57:00,mcc,43.68
2022-11-05T01:58:00,mcc,44.71
2022-11-05T01:59:00,mcc,44.57
2022-11-05T02:00:00,mcc,44.64
2022-11-05T02:01:00,mcc,43.98
2022-11-05T02:02:00,mcc,44.32
2022-11-05T02:03:00,mcc,46.19
2022-11-05T02:04:00,mcc,46.30
2022-11-05T02:05:00,mcc,46.26
2022-11-05T02:06:00,mcc,47.51
2022-11-05T02:07:00,mcc,43.07
2022-11-05T02:08:00,mcc,42.60
2022-11-05T02:09:00,mcc,43.27
2022-11-05T02:10:00,mcc,44.83
2022-11-05T02:11:00,mcc,51.54
2022-11-05T02:12:00,mcc,42.19
2022-11-05T02:13:00,mcc,39.43
2022-11-05T02:14:00,mcc,43.27
2022-11-05T02:15:00,mcc,41.86
2022-11-05T02:16:00,mcc,42.44
2022-11-05T02:17:00,mcc,41.78
2022-11-05T02:18:00,mcc,44.48
2022-11-05T02:19:00,mcc,42.38
2022-11-05T02:20:00,mcc,42.74
2022-11-05T02:21:00,mcc,41.14
2022-11-05T02:22:00,mcc,45.47
2022-11-05T02:23:00,mcc,43.55
2022-11-05T02:24:00,mcc,45.35
2022-11-05T02:25:00,mcc,45.08
2022-11-05T02:26:00,mcc,42.27
2022-11-05T02:27:00,mcc,41.05
2022-11-05T02:28:00,mcc,42.39
2022-11-05T02:29:00,mcc,46.65
2022-11-05T02:30:00,mcc,43.54
2022-11-05T02:31:00,mcc,44.49
2022-11-05T02:32:00,mcc,44.39
2022-11-05T02:33:00,mcc,46.51
2022-11-05T02:34:00,mcc,44.08
2022-11-05T02:35:00,mcc,44.44
2022-11-05T02:36:00,mcc,43.23
2022-11-05T02:37:00,mcc,48.13
2022-11-05T02:38:00,mcc,47.89
2022-11-05T02:39:00,mcc,49.17
2022-11-05T02:40:00,mcc,49.33
2022-11-05T02:41:00,mcc,46.48
2022-11-05T02:42:00,mcc,44.95
2022-11-05T02:43:00,mcc,47.42
2022-11-05T02:44:00,mcc,46.33
2022-11-05T02:45:00,mcc,48.36
2022-11-05T02:46:00,mcc,48.02
2022-11-05T02:47:00,mcc,44.84
2022-11-05T02:48:00,mcc,44.98
2022-11-05T02:49:00,mcc,44.24
2022-11-05T02:50:00,mcc,42.62
2022-11-05T02:51:00,mcc,50.04
2022-11-05T02:52:00,mcc,40.05
2022-11-05T02:53:00,mcc,42.79
2022-11-05T02:54:00,mcc,40.46
2022-11-05T02:55:00,mcc,43.22
2022-11-05T02:56:00,mcc,44.27
2022-11-05T02:57:00,mcc,45.31
2022-11-05T02:58:00,mcc,44.42
2022-11-05T02:59:00,mcc,44.62
2022-11-05T03:00:00,mcc,44.42
2022-11-05T03:01:00,mcc,47.04
2022-11-05T03:02:00,mcc,44.24
2022-11-05T03:03:00,mcc,43.52
2022-11-05T03:04:00,mcc,42.96
2022-11-05T03:05:00,mcc,44.81
2022-11-05T03:06:00,mcc,44.65
2022-11-05T03:07:00,mcc,43.74
2022-11-05T03:08:00,mcc,43.21
2022-11-05T03:09:00,mcc,43.85
2022-11-05T03:10:00,mcc,44.00
2022-11-05T03:11:00,mcc,46.03
2022-11-05T03:12:00,mcc,48.73
2022-11-05T03:13:00,mcc,47.44
2022-11-05T03:14:00,mcc,45.29
2022-11-05T03:15:00,mcc,45.69
2022-11-05T03:16:00,mcc,47.92
2022-11-05T03:17:00,mcc,43.75
2022-11-05T03:18:00,mcc,56.65
2022-11-05T03:19:00,mcc,42.22
2022-11-05T03:20:00,mcc,43.86
2022-11-05T03:21:00,mcc,41.78
2022-11-05T03:22:00,mcc,42.29
2022-11-05T03:23:00,mcc,42.17
2022-11-05T03:24:00,mcc,44.09
2022-11-05T03:25:00,mcc,41.48
2022-11-05T03:26:00,mcc,40.60
2022-11-05T03:27:00,mcc,40.21
2022-11-05T03:28:00,mcc,41.67
2022-11-05T03:29:00,mcc,39.47
2022-11-05T03:30:00,mcc,46.46
2022-11-05T03:31:00,mcc,55.82
2022-11-05T03:32:00,mcc,49.99
2022-11-05T03:33:00,mcc,49.41
2022-11-05T03:34:00,mcc,47.74
2022-11-05T03:35:00,mcc,41.54
2022-11-05T03:36:00,mcc,41.62
2022-11-05T03:37:00,mcc,40.64
2022-11-05T03:38:00,mcc,39.95
2022-11-05T03:39:00,mcc,42.68
2022-11-05T03:40:00,mcc,45.60
2022-11-05T03:41:00,mcc,43.68
2022-11-05T03:42:00,mcc,43.92
2022-11-05T03:43:00,mcc,41.94
2022-11-05T03:44:00,mcc,46.23
2022-11-05T03:45:00,mcc,45.94
2022-11-05T03:46:00,mcc,43.88
2022-11-05T03:47:00,mcc,44.24
2022-11-05T03:48:00,mcc,42.51
2022-11-05T03:49:00,mcc,44.21
2022-11-05T03:50:00,mcc,44.14
2022-11-05T03:51:00,mcc,46.70
2022-11-05T03:52:00,mcc,43.95
2022-11-05T03:53:00,mcc,44.95
2022-11-05T03:54:00,mcc,43.23
2022-11-05T03:55:00,mcc,41.26
2022-11-05T03:56:00,mcc,40.87
2022-11-05T03:57:00,mcc,41.31
2022-11-05T03:58:00,mcc,41.07
2022-11-05T03:59:00,mcc,39.19
2022-11-05T04:00:00,mcc,39.95
2022-11-05T04:01:00,mcc,38.94
2022-11-05T04:02:00,mcc,39.11
2022-11-05T04:03:00,mcc,40.41
2022-11-05T04:04:00,mcc,38.22
2022-11-05T04:05:00,mcc,38.15
2022-11-05T04:06:00,mcc,40.06
2022-11-05T04:07:00,mcc,44.12
2022-11-05T04:08:00,mcc,41.09
2022-11-05T04:09:00,mcc,39.64
2022-11-05T04:10:00,mcc,40.43
2022-11-05T04:11:00,mcc,41.97
2022-11-05T04:12:00,mcc,46.83
2022-11-05T04:13:00,mcc,42.56
2022-11-05T04:14:00,mcc,42.08
2022-11-05T04:15:00,mcc,43.61
2022-11-05T04:16:00,mcc,42.09
2022-11-05T04:17:00,mcc,48.24
2022-11-05T04:18:00,mcc,48.81
2022-11-05T04:19:00,mcc,52.15
2022-11-05T04:20:00,mcc,48.25
2022-11-05T04:21:00,mcc,47.06
2022-11-05T04:22:00,mcc,46.41
2022-11-05T04:23:00,mcc,43.22
2022-11-05T04:24:00,mcc,40.13
2022-11-05T04:25:00,mcc,42.35
2022-11-05T04:26:00,mcc,43.40
2022-11-05T04:27:00,mcc,43.27
2022-11-05T04:28:00,mcc,40.04
2022-11-05T04:29:00,mcc,39.13
2022-11-05T04:30:00,mcc,42.08
2022-11-05T04:31:00,mcc,53.55
2022-11-05T04:32:00,mcc,39.55
2022-11-05T04:33:00,mcc,40.73
2022-11-05T04:34:00,mcc,40.81
2022-11-05T04:35:00,mcc,41.21
2022-11-05T04:36:00,mcc,38.52
2022-11-05T04:37:00,mcc,39.36
2022-11-05T04:38:00,mcc,37.85
2022-11-05T04:39:00,mcc,40.71
2022-11-05T04:40:00,mcc,38.51
2022-11-05T04:41:00,mcc,39.11
2022-11-05T04:42:00,mcc,46.27
2022-11-05T04:43:00,mcc,46.00
2022-11-05T04:44:00,mcc,46.64
2022-11-05T04:45:00,mcc,47.73
2022-11-05T04:46:00,mcc,44.16
2022-11-05T04:47:00,mcc,42.70
2022-11-05T04:48:00,mcc,42.27
2022-11-05T04:49:00,mcc,40.31
2022-11-05T04:50:00,mcc,41.31
2022-11-05T04:51:00,mcc,42.81
2022-11-05T04:52:00,mcc,40.44
2022-11-05T04:53:00,mcc,41.20
2022-11-05T04:54:00,mcc,42.89
2022-11-05T04:55:00,mcc,45.45
2022-11-05T04:56:00,mcc,39.94
2022-11-05T04:57:00,mcc,39.88
2022-11-05T04:58:00,mcc,38.40
2022-11-05T04:59:00,mcc,38.48
2022-11-05T05:00:00,mcc,37.83
2022-11-05T05:01:00,mcc,40.34
2022-11-05T05:02:00,mcc,39.78
2022-11-05T05:03:00,mcc,40.97
2022-11-05T05:04:00,mcc,39.10
2022-11-05T05:05:00,mcc,38.14
2022-11-05T05:06:00,mcc,41.58
2022-11-05T05:07:00,mcc,37.08
2022-11-05T05:08:00,mcc,37.54
2022-11-05T05:09:00,mcc,36.92
2022-11-05T05:10:00,mcc,38.30
2022-11-05T05:11:00,mcc,45.72
2022-11-05T05:12:00,mcc,47.89
2022-11-05T05:13:00,mcc,49.03
2022-11-05T05:14:00,mcc,51.82
2022-11-05T05:15:00,mcc,48.93
2022-11-05T05:16:00,mcc,40.47
2022-11-05T05:17:00,mcc,40.62
2022-11-05T05:18:00,mcc,42.02
2022-11-05T05:19:00,mcc,39.77
2022-11-05T05:20:00,mcc,41.91
2022-11-05T05:21:00,mcc,41.75
2022-11-05T05:22:00,mcc,45.38
2022-11-05T05:23:00,mcc,43.26
2022-11-05T05:24:00,mcc,41.64
2022-11-05T05:25:00,mcc,42.06
2022-11-05T05:26:00,mcc,40.98
2022-11-05T05:27:00,mcc,40.90
2022-11-05T05:28:00,mcc,42.95
2022-11-05T05:29:00,mcc,42.77
2022-11-05T05:30:00,mcc,43.60
2022-11-05T05:31:00,mcc,42.43
2022-11-05T05:32:00,mcc,43.06
2022-11-05T05:33:00,mcc,40.68
2022-11-05T05:34:00,mcc,40.90
2022-11-05T05:35:00,mcc,37.13
2022-11-05T05:36:00,mcc,36.58
2022-11-05T05:37:00,mcc,39.15
2022-11-05T05:38:00,mcc,40.26
2022-11-05T05:39:00,mcc,39.45
2022-11-05T05:40:00,mcc,40.40
2022-11-05T05:41:00,mcc,38.00
2022-11-05T05:42:00,mcc,39.94
2022-11-05T05:43:00,mcc,37.17
2022-11-05T05:44:00,mcc,36.95
2022-11-05T05:45:00,mcc,38.93
2022-11-05T05:46:00,mcc,39.13
2022-11-05T05:47:00,mcc,37.48
2022-11-05T05:48:00,mcc,51.47
2022-11-05T05:49:00,mcc,45.13
2022-11-05T05:50:00,mcc,41.68
2022-11-05T05:51:00,mcc,46.82
2022-11-05T05:52:00,mcc,39.15
2022-11-05T05:53:00,mcc,40.03
2022-11-05T05:54:00,mcc,39.09
2022-11-05T05:55:00,mcc,43.06
2022-11-05T05:56:00,mcc,42.86
2022-11-05T05:57:00,mcc,41.93
2022-11-05T05:58:00,mcc,43.07
2022-11-05T05:59:00,mcc,42.61
2022-11-05T06:00:00,mcc,43.69
2022-11-05T06:01:00,mcc,40.96
2022-11-05T06:02:00,mcc,43.48
2022-11-05T06:03:00,mcc,40.79
2022-11-05T06:04:00,mcc,41.90
2022-11-05T06:05:00,mcc,41.15
2022-11-05T06:06:00,mcc,44.28
2022-11-05T06:07:00,mcc,41.96
2022-11-05T06:08:00,mcc,41.52
2022-11-05T06:09:00,mcc,40.84
2022-11-05T06:10:00,mcc,42.12
2022-11-05T06:11:00,mcc,48.10
2022-11-05T06:12:00,mcc,41.50
2022-11-05T06:13:00,mcc,41.73
2022-11-05T06:14:00,mcc,43.50
2022-11-05T06:15:00,mcc,42.53
2022-11-05T06:16:00,mcc,41.37
2022-11-05T06:17:00,mcc,43.26
2022-11-05T06:18:00,mcc,42.45
2022-11-05T06:19:00,mcc,42.21
2022-11-05T06:20:00,mcc,41.88
2022-11-05T06:21:00,mcc,42.16
2022-11-05T06:22:00,mcc,42.32
2022-11-05T06:23:00,mcc,41.30
2022-11-05T06:24:00,mcc,41.46
2022-11-05T06:25:00,mcc,40.52
2022-11-05T06:26:00,mcc,40.61
2022-11-05T06:27:00,mcc,41.18
2022-11-05T06:28:00,mcc,41.73
2022-11-05T06:29:00,mcc,40.65
2022-11-05T06:30:00,mcc,48.37
2022-11-05T06:31:00,mcc,43.00
2022-11-05T06:32:00,mcc,42.35
2022-11-05T06:33:00,mcc,42.34
2022-11-05T06:34:00,mcc,42.85
2022-11-05T06:35:00,mcc,45.19
2022-11-05T06:36:00,mcc,42.88
2022-11-05T06:37:00,mcc,42.45
2022-11-05T06:38:00,mcc,41.92
2022-11-05T06:39:00,mcc,45.31
2022-11-05T06:40:00,mcc,41.87
2022-11-05T06:41:00,mcc,44.14
2022-11-05T06:42:00,mcc,44.14
2022-11-05T06:43:00,mcc,44.52
2022-11-05T06:44:00,mcc,41.64
2022-11-05T06:45:00,mcc,42.29
2022-11-05T06:46:00,mcc,41.55
2022-11-05T06:47:00,mcc,43.04
2022-11-05T06:48:00,mcc,42.61
2022-11-05T06:49:00,mcc,41.56
2022-11-05T06:50:00,mcc,41.99
2022-11-05T06:51:00,mcc,43.88
2022-11-05T06:52:00,mcc,41.92
2022-11-05T06:53:00,mcc,40.71
2022-11-05T06:54:00,mcc,40.58
2022-11-05T06:55:00,mcc,43.39
2022-11-05T06:56:00,mcc,40.12
2022-11-05T06:57:00,mcc,39.44
2022-11-05T06:58:00,mcc,39.50
2022-11-05T06:59:00,mcc,41.82
2022-11-05T07:00:00,mcc,41.96
2022-11-05T07:01:00,mcc,42.58
2022-11-05T07:02:00,mcc,42.08
2022-11-05T07:03:00,mcc,43.07
2022-11-05T07:04:00,mcc,43.19
2022-11-05T07:05:00,mcc,54.25
2022-11-05T07:06:00,mcc,41.87
2022-11-05T07:07:00,mcc,42.43
2022-11-05T07:08:00,mcc,40.53
2022-11-05T07:09:00,mcc,39.40
2022-11-05T07:10:00,mcc,38.81
2022-11-05T07:11:00,mcc,41.26
2022-11-05T07:12:00,mcc,47.63
2022-11-05T07:13:00,mcc,48.52
2022-11-05T07:14:00,mcc,48.67
2022-11-05T07:15:00,mcc,51.12
2022-11-05T07:16:00,mcc,47.00
2022-11-05T07:17:00,mcc,47.47
2022-11-05T07:18:00,mcc,47.39
2022-11-05T07:19:00,mcc,48.78
2022-11-05T07:20:00,mcc,45.31
2022-11-05T07:21:00,mcc,46.12
2022-11-05T07:22:00,mcc,45.28
2022-11-05T07:23:00,mcc,49.43
2022-11-05T07:24:00,mcc,46.07
2022-11-05T07:25:00,mcc,46.28
2022-11-05T07:26:00,mcc,45.49
2022-11-05T07:27:00,mcc,47.13
2022-11-05T07:28:00,mcc,44.88
2022-11-05T07:29:00,mcc,44.89
2022-11-05T07:30:00,mcc,52.83
2022-11-05T07:31:00,mcc,46.12
2022-11-05T07:32:00,mcc,46.70
2022-11-05T07:33:00,mcc,47.13
2022-11-05T07:34:00,mcc,46.65
2022-11-05T07:35:00,mcc,47.07
2022-11-05T07:36:00,mcc,44.63
2022-11-05T07:37:00,mcc,44.40
2022-11-05T07:38:00,mcc,44.21
2022-11-05T07:39:00,mcc,47.74
2022-11-05T07:40:00,mcc,45.78
2022-11-05T07:41:00,mcc,45.69
2022-11-05T07:42:00,mcc,45.51
2022-11-05T07:43:00,mcc,44.00
2022-11-05T07:44:00,mcc,45.19
2022-11-05T07:45:00,mcc,44.73
2022-11-05T07:46:00,mcc,45.10
2022-11-05T07:47:00,mcc,45.23
2022-11-05T07:48:00,mcc,46.92
2022-11-05T07:49:00,mcc,47.25
2022-11-05T07:50:00,mcc,53.13
2022-11-05T07:51:00,mcc,44.85
2022-11-05T07:52:00,mcc,45.95
2022-11-05T07:53:00,mcc,36.20
2022-11-05T07:54:00,mcc,37.26
2022-11-05T07:55:00,mcc,39.09
2022-11-05T07:56:00,mcc,54.08
2022-11-05T07:57:00,mcc,52.61
2022-11-05T07:58:00,mcc,53.15
2022-11-05T07:59:00,mcc,53.07
2022-11-05T08:00:00,mcc,53.13
2022-11-05T08:01:00,mcc,52.23
2022-11-05T08:02:00,mcc,52.25
2022-11-05T08:03:00,mcc,52.48
2022-11-05T08:04:00,mcc,52.43
2022-11-05T08:05:00,mcc,53.32
2022-11-05T08:06:00,mcc,52.28
2022-11-05T08:07:00,mcc,52.49
2022-11-05T08:08:00,mcc,55.32
2022-11-05T08:09:00,mcc,56.59
2022-11-05T08:10:00,mcc,56.79
2022-11-05T08:11:00,mcc,49.46
2022-11-05T08:12:00,mcc,49.82
2022-11-05T08:13:00,mcc,48.83
2022-11-05T08:14:00,mcc,50.10
2022-11-05T08:15:00,mcc,57.04
2022-11-05T08:16:00,mcc,55.01
2022-11-05T08:17:00,mcc,56.76
2022-11-05T08:18:00,mcc,57.56
2022-11-05T08:19:00,mcc,59.41
2022-11-05T08:20:00,mcc,57.93
2022-11-05T08:21:00,mcc,55.19
2022-11-05T08:22:00,mcc,53.19
2022-11-05T08:23:00,mcc,55.34
2022-11-05T08:24:00,mcc,57.14
2022-11-05T08:25:00,mcc,55.57
2022-11-05T08:26:00,mcc,56.10
2022-11-05T08:27:00,mcc,56.08
2022-11-05T08:28:00,mcc,59.55
2022-11-05T08:29:00,mcc,55.58
2022-11-05T08:30:00,mcc,61.81
2022-11-05T08:31:00,mcc,56.20
2022-11-05T08:32:00,mcc,58.19
2022-11-05T08:33:00,mcc,54.68
2022-11-05T08:34:00,mcc,54.16
2022-11-05T08:35:00,mcc,53.98
2022-11-05T08:36:00,mcc,54.44
2022-11-05T08:37:00,mcc,57.32
2022-11-05T08:38:00,mcc,56.55
2022-11-05T08:39:00,mcc,56.61
2022-11-05T08:40:00,mcc,55.80
2022-11-05T08:41:00,mcc,56.07
2022-11-05T08:42:00,mcc,55.72
2022-11-05T08:43:00,mcc,56.75
2022-11-05T08:44:00,mcc,54.86
2022-11-05T08:45:00,mcc,52.13
2022-11-05T08:46:00,mcc,52.82
2022-11-05T08:47:00,mcc,53.30
2022-11-05T08:48:00,mcc,53.32
2022-11-05T08:49:00,mcc,51.72
2022-11-05T08:50:00,mcc,59.60
2022-11-05T08:51:00,mcc,52.11
2022-11-05T08:52:00,mcc,52.18
2022-11-05T08:53:00,mcc,44.31
2022-11-05T08:54:00,mcc,53.79
2022-11-05T08:55:00,mcc,65.01
2022-11-05T08:56:00,mcc,64.91
2022-11-05T08:57:00,mcc,55.44
2022-11-05T08:58:00,mcc,45.37
2022-11-05T08:59:00,mcc,50.65
2022-11-05T09:00:00,mcc,51.51
2022-11-05T09:01:00,mcc,50.63
2022-11-05T09:02:00,mcc,49.29
2022-11-05T09:03:00,mcc,61.16
2022-11-05T09:04:00,mcc,60.99
2022-11-05T09:05:00,mcc,61.90
2022-11-05T09:06:00,mcc,62.09
2022-11-05T09:07:00,mcc,64.77
2022-11-05T09:08:00,mcc,62.51
2022-11-05T09:09:00,mcc,62.44
2022-11-05T09:10:00,mcc,71.20
2022-11-05T09:11:00,mcc,65.91
2022-11-05T09:12:00,mcc,61.61
2022-11-05T09:13:00,mcc,61.73
2022-11-05T09:14:00,mcc,61.18
2022-11-05T09:15:00,mcc,62.65
2022-11-05T09:16:00,mcc,62.53
2022-11-05T09:17:00,mcc,61.63
2022-11-05T09:18:00,mcc,61.61
2022-11-05T09:19:00,mcc,54.86
2022-11-05T09:20:00,mcc,54.34
2022-11-05T09:21:00,mcc,53.69
2022-11-05T09:22:00,mcc,53.38
2022-11-05T09:23:00,mcc,53.39
2022-11-05T09:24:00,mcc,53.43
2022-11-05T09:25:00,mcc,60.13
2022-11-05T09:26:00,mcc,60.36
2022-11-05T09:27:00,mcc,63.69
2022-11-05T09:28:00,mcc,63.31
2022-11-05T09:29:00,mcc,76.72
2022-11-05T09:30:00,mcc,59.48
2022-11-05T09:31:00,mcc,52.47
2022-11-05T09:32:00,mcc,51.40
2022-11-05T09:33:00,mcc,52.05
2022-11-05T09:34:00,mcc,52.52
2022-11-05T09:35:00,mcc,56.20
2022-11-05T09:36:00,mcc,54.48
2022-11-05T09:37:00,mcc,54.04
2022-11-05T09:38:00,mcc,54.18
2022-11-05T09:39:00,mcc,55.30
2022-11-05T09:40:00,mcc,51.47
2022-11-05T09:41:00,mcc,52.39
2022-11-05T09:42:00,mcc,55.68
2022-11-05T09:43:00,mcc,57.18
2022-11-05T09:44:00,mcc,54.20
2022-11-05T09:45:00,mcc,54.38
2022-11-05T09:46:00,mcc,53.20
2022-11-05T09:47:00,mcc,57.57
2022-11-05T09:48:00,mcc,54.12
2022-11-05T09:49:00,mcc,70.11
2022-11-05T09:50:00,mcc,53.94
2022-11-05T09:51:00,mcc,56.75
2022-11-05T09:52:00,mcc,53.48
2022-11-05T09:53:00,mcc,60.89
2022-11-05T09:54:00,mcc,51.49
2022-11-05T09:55:00,mcc,51.52
2022-11-05T09:56:00,mcc,61.17
2022-11-05T09:57:00,mcc,67.87
2022-11-05T09:58:00,mcc,58.96
2022-11-05T09:59:00,mcc,61.45
2022-11-05T10:00:00,mcc,64.01
2022-11-05T10:01:00,mcc,71.35
2022-11-05T10:02:00,mcc,70.83
2022-11-05T10:03:00,mcc,71.02
2022-11-05T10:04:00,mcc,62.50
2022-11-05T10:05:00,mcc,54.33
2022-11-05T10:06:00,mcc,61.04
2022-11-05T10:07:00,mcc,60.53
2022-11-05T10:08:00,mcc,60.23
2022-11-05T10:09:00,mcc,68.04
2022-11-05T10:10:00,mcc,61.85
2022-11-05T10:11:00,mcc,60.19
2022-11-05T10:12:00,mcc,56.90
2022-11-05T10:13:00,mcc,55.03
2022-11-05T10:14:00,mcc,48.85
2022-11-05T10:15:00,mcc,49.71
2022-11-05T10:16:00,mcc,69.70
2022-11-05T10:17:00,mcc,52.39
2022-11-05T10:18:00,mcc,49.98
2022-11-05T10:19:00,mcc,46.13
2022-11-05T10:20:00,mcc,46.67
2022-11-05T10:21:00,mcc,46.49
2022-11-05T10:22:00,mcc,46.75
2022-11-05T10:23:00,mcc,48.06
2022-11-05T10:24:00,mcc,44.96
2022-11-05T10:25:00,mcc,44.73
2022-11-05T10:26:00,mcc,45.58
2022-11-05T10:27:00,mcc,45.62
2022-11-05T10:28:00,mcc,48.06
2022-11-05T10:29:00,mcc,51.21
2022-11-05T10:30:00,mcc,50.89
2022-11-05T10:31:00,mcc,51.97
2022-11-05T10:32:00,mcc,52.76
2022-11-05T10:33:00,mcc,44.94
2022-11-05T10:34:00,mcc,45.85
2022-11-05T10:35:00,mcc,45.50
2022-11-05T10:36:00,mcc,50.23
2022-11-05T10:37:00,mcc,48.33
2022-11-05T10:38:00,mcc,47.19
2022-11-05T10:39:00,mcc,44.91
2022-11-05T10:40:00,mcc,48.19
2022-11-05T10:41:00,mcc,44.70
2022-11-05T10:42:00,mcc,44.91
2022-11-05T10:43:00,mcc,46.91
2022-11-05T10:44:00,mcc,49.70
2022-11-05T10:45:00,mcc,47.03
2022-11-05T10:46:00,mcc,48.03
2022-11-05T10:47:00,mcc,46.18
2022-11-05T10:48:00,mcc,48.91
2022-11-05T10:49:00,mcc,56.65
2022-11-05T10:50:00,mcc,47.76
2022-11-05T10:51:00,mcc,49.64
2022-11-05T10:52:00,mcc,53.84
2022-11-05T10:53:00,mcc,49.23
2022-11-05T10:54:00,mcc,48.05
2022-11-05T10:55:00,mcc,48.34
2022-11-05T10:56:00,mcc,50.09
2022-11-05T10:57:00,mcc,46.16
2022-11-05T10:58:00,mcc,46.64
2022-11-05T10:59:00,mcc,46.72
2022-11-05T11:00:00,mcc,49.78
2022-11-05T11:01:00,mcc,47.67
2022-11-05T11:02:00,mcc,47.42
2022-11-05T11:03:00,mcc,47.02
2022-11-05T11:04:00,mcc,48.97
2022-11-05T11:05:00,mcc,45.57
2022-11-05T11:06:00,mcc,57.95
2022-11-05T11:07:00,mcc,57.50
2022-11-05T11:08:00,mcc,47.41
2022-11-05T11:09:00,mcc,47.06
2022-11-05T11:10:00,mcc,47.26
2022-11-05T11:11:00,mcc,49.00
2022-11-05T11:12:00,mcc,49.41
2022-11-05T11:13:00,mcc,47.78
2022-11-05T11:14:00,mcc,47.93
2022-11-05T11:15:00,mcc,48.00
2022-11-05T11:16:00,mcc,51.11
2022-11-05T11:17:00,mcc,49.85
2022-11-05T11:18:00,mcc,51.16
2022-11-05T11:19:00,mcc,51.48
2022-11-05T11:20:00,mcc,53.18
2022-11-05T11:21:00,mcc,51.82
2022-11-05T11:22:00,mcc,51.35
2022-11-05T11:23:00,mcc,50.91
2022-11-05T11:24:00,mcc,53.93
2022-11-05T11:25:00,mcc,50.44
2022-11-05T11:26:00,mcc,52.60
2022-11-05T11:27:00,mcc,50.23
2022-11-05T11:28:00,mcc,50.48
2022-11-05T11:29:00,mcc,57.89
2022-11-05T11:30:00,mcc,56.58
2022-11-05T11:31:00,mcc,49.21
2022-11-05T11:32:00,mcc,51.56
2022-11-05T11:33:00,mcc,49.32
2022-11-05T11:34:00,mcc,50.07
2022-11-05T11:35:00,mcc,48.63
2022-11-05T11:36:00,mcc,51.94
2022-11-05T11:37:00,mcc,49.24
2022-11-05T11:38:00,mcc,49.09
2022-11-05T11:39:00,mcc,47.38
2022-11-05T11:40:00,mcc,47.45
2022-11-05T11:41:00,mcc,48.15
2022-11-05T11:42:00,mcc,45.84
2022-11-05T11:43:00,mcc,46.97
2022-11-05T11:44:00,mcc,47.70
2022-11-05T11:45:00,mcc,50.17
2022-11-05T11:46:00,mcc,48.84
2022-11-05T11:47:00,mcc,46.19
2022-11-05T11:48:00,mcc,45.85
2022-11-05T11:49:00,mcc,57.32
2022-11-05T11:50:00,mcc,56.45
2022-11-05T11:51:00,mcc,48.96
2022-11-05T11:52:00,mcc,49.21
2022-11-05T11:53:00,mcc,53.38
2022-11-05T11:54:00,mcc,53.11
2022-11-05T11:55:00,mcc,52.51
2022-11-05T11:56:00,mcc,52.33
2022-11-05T11:57:00,mcc,57.13
2022-11-05T11:58:00,mcc,54.44
2022-11-05T11:59:00,mcc,53.21
2022-11-05T12:00:00,mcc,53.77
2022-11-05T12:01:00,mcc,53.86
2022-11-05T12:02:00,mcc,52.69
2022-11-05T12:03:00,mcc,52.63
2022-11-05T12:04:00,mcc,52.30
2022-11-05T12:05:00,mcc,54.33
2022-11-05T12:06:00,mcc,49.15
2022-11-05T12:07:00,mcc,48.25
2022-11-05T12:08:00,mcc,48.56
2022-11-05T12:09:00,mcc,52.59
2022-11-05T12:10:00,mcc,60.64
2022-11-05T12:11:00,mcc,52.97
2022-11-05T12:12:00,mcc,53.29
2022-11-05T12:13:00,mcc,53.68
2022-11-05T12:14:00,mcc,50.91
2022-11-05T12:15:00,mcc,51.75
2022-11-05T12:16:00,mcc,52.21
2022-11-05T12:17:00,mcc,55.67
2022-11-05T12:18:00,mcc,54.40
2022-11-05T12:19:00,mcc,52.95
2022-11-05T12:20:00,mcc,54.52
2022-11-05T12:21:00,mcc,55.74
2022-11-05T12:22:00,mcc,52.37
2022-11-05T12:23:00,mcc,51.96
2022-11-05T12:24:00,mcc,52.42
2022-11-05T12:25:00,mcc,52.85
2022-11-05T12:26:00,mcc,52.11
2022-11-05T12:27:00,mcc,64.06
2022-11-05T12:28:00,mcc,50.09
2022-11-05T12:29:00,mcc,50.19
2022-11-05T12:30:00,mcc,49.43
2022-11-05T12:31:00,mcc,57.46
2022-11-05T12:32:00,mcc,49.64
2022-11-05T12:33:00,mcc,49.27
2022-11-05T12:34:00,mcc,50.48
2022-11-05T12:35:00,mcc,50.80
2022-11-05T12:36:00,mcc,49.75
2022-11-05T12:37:00,mcc,50.15
2022-11-05T12:38:00,mcc,50.34
2022-11-05T12:39:00,mcc,50.33
2022-11-05T12:40:00,mcc,50.19
2022-11-05T12:41:00,mcc,50.85
2022-11-05T12:42:00,mcc,52.31
2022-11-05T12:43:00,mcc,49.96
2022-11-05T12:44:00,mcc,48.82
2022-11-05T12:45:00,mcc,49.07
2022-11-05T12:46:00,mcc,52.39
2022-11-05T12:47:00,mcc,52.20
2022-11-05T12:48:00,mcc,51.60
2022-11-05T12:49:00,mcc,49.96
2022-11-05T12:50:00,mcc,51.54
2022-11-05T12:51:00,mcc,60.06
2022-11-05T12:52:00,mcc,49.94
2022-11-05T12:53:00,mcc,51.10
2022-11-05T12:54:00,mcc,54.34
2022-11-05T12:55:00,mcc,52.78
2022-11-05T12:56:00,mcc,52.80
2022-11-05T12:57:00,mcc,52.64
2022-11-05T12:58:00,mcc,54.13
2022-11-05T12:59:00,mcc,51.39
2022-11-05T13:00:00,mcc,52.30
2022-11-05T13:01:00,mcc,50.50
2022-11-05T13:02:00,mcc,52.48
2022-11-05T13:03:00,mcc,50.98
2022-11-05T13:04:00,mcc,48.75
2022-11-05T13:05:00,mcc,48.56
2022-11-05T13:06:00,mcc,49.97
2022-11-05T13:07:00,mcc,49.94
2022-11-05T13:08:00,mcc,51.36
2022-11-05T13:09:00,mcc,51.04
2022-11-05T13:10:00,mcc,50.04
2022-11-05T13:11:00,mcc,53.15
2022-11-05T13:12:00,mcc,58.56
2022-11-05T13:13:00,mcc,49.42
2022-11-05T13:14:00,mcc,50.77
2022-11-05T13:15:00,mcc,52.09
2022-11-05T13:16:00,mcc,50.71
2022-11-05T13:17:00,mcc,53.34
2022-11-05T13:18:00,mcc,52.17